STARLINK-32363, 61678

Orbit data source: Space-Track

STARLINK-32363, 61678 is a payload satellite owned by SpaceX/Seattle (US) in LEO that was launched on Sat, 26 Oct 2024 UTC via an FALCON 9 launch vehicle from the Air Force Eastern Test Range (AFETR). Payload-class satellites include a variety of spacecraft equipped with specific instruments for various scientific and technological missions. These include communications satellites like Starlink; space stations such as the ISS; scientific satellites like the Hubble; Earth observation satellites from companies like Planet Labs, Umbra, and HawkEye 360; GPS; miniature CubeSats for education and research; and military/defense satellites.

Loading next visibility...
Identifier
61678, 2024-193T
Orbit
LEO
Country
Flag of USUS
Related business
Manufacturer
SpaceX/Seattle
Mission
Operational Commercial Communications
Bus & Motor
STARLINK V2M, Unknown motor
Mass
730 kg wet, ~700 kg dry
Launch date (UTC)
2024-10-26 (1 year ago)
Launch vehicle
FALCON 9
Launch site
Air Force Eastern Test Range (AFETR)
Object type
Payload
Rocket body
Debris
Shape & HBR
Box + 2 Pan, 17.7 m
Radar Cross Section
33.884 m², Large (>1 m²)

Expand to show TLE details & history
Last TLE update: 1 day ago

TLE from 1 day ago
0 STARLINK-32363
1 61678U 24193T   25312.67828316  .00001120  00000-0  49949-4 0  9994
2 61678  53.1615 292.7788 0001618  82.6324 277.4861 15.30203026 58005
Epoch: 2025-11-08T16:16Z
TLE epoch observation values (Epoch: 2025-11-08T16:16:43.665Z)
Latitude
0.00003°
Longitude
0.49244°
Altitude
475.962 km
Speed
7.629 km/s
True Right ascension
19h 31m 06s
True Declination
0° 00' 00"
Sunlit
Object was in daylight at epoch
Visualization orbit readout
Latitude
Unknown
Longitude
Unknown
Altitude
Unknown
Speed
Unknown
Apparent Right ascension
Unknown
Apparent Declination
Unknown
Sunlit
N/A
Visualization observer readout
Local Sidereal Time
18:34:12
Azimuth
Unknown
Elevation
Unknown
Doppler factor
Unknown
Orbital elements
Apogee altitude
476.571 km
Perigee altitude
474.353 km
Semi-major axis
6,853.599 km
Eccentricity
0.00016
Inclination
53.1615°
RAAN
292.7788°
Arg. of periapsis
82.6324°
True anomaly
277.46772°
Mean anomaly
277.4861°
Eccentric anomaly
277.47691°
Mean motion
3.8253 °/min
Orbital period
94.11 mins
BSTAR
0.000049949
Loading maneuver chart data...
Computing Atmospheric mass density...
Loading historical data...
Loading historical data...
Loading historical data...
Loading historical data...
Loading historical data...
Loading historical data...
Loading historical data...

Documentation

Showing up to 5 results
|